Weather History for KLNK - March, 2014

Change the Weather History Date:

Thursday, March 27, 2014

  Actual Average Record
Temperature  
Mean Temperature 47 °F 44 °F  
Max Temperature 58 °F 57 °F 84 °F (1905)
Min Temperature 35 °F 32 °F 6 °F (1913)
Degree Days  
Heating Degree Days 18 21  
Month to date heating degree days 788 693  
Since 1 July heating degree days 5905 5396  
Cooling Degree Days 0 0  
Month to date cooling degree days 0 0  
Year to date cooling degree days 0 0  
Moisture  
Dew Point 38 °F    
Average Humidity 75    
Maximum Humidity 86    
Minimum Humidity 64    
Precipitation  
Precipitation 0.07 in 0.07 in 0.98 in (2004)
Month to date precipitation 0.13 1.60  
Year to date precipitation 0.99 3.01  
Snow  
Snow T in 0.10 in - ()
Month to date snowfall 0.7 4.3  
Since 1 July snowfall 17.7 24.0  
Snow Depth 0.00 in    
Sea Level Pressure  
Sea Level Pressure 29.49 in    
Wind  
Wind Speed 16 mph (North)    
Max Wind Speed 32 mph    
Max Gust Speed 41 mph    
Visibility 6 miles    
Events Rain    
T = Trace of Precipitation, MM = Missing Value Source: NWS Daily Summary

Daily Weather History Graph

Daily Weather History Graph

Search for Another Location

Airport or City:

Trip Planner

Search our weather history database for the weather conditions in past years. The results will help you decide how hot, cold, wet, or windy it might be!

Date:

Astronomy

Mar. 27, 2014 Rise Set
Actual Time 7:18 AM CDT 7:46 PM CDT
Civil Twilight 6:51 AM CDT 8:14 PM CDT
Nautical Twilight 6:18 AM CDT 8:46 PM CDT
Astronomical Twilight 5:45 AM CDT 9:19 PM CDT
Moon 5:12 AM CDT (3/27) 4:34 PM CDT (3/27)
Length of Visible Light 13h 22m
Length of Day
12h 27m
Waning Crescent, 13% of the Moon is Illuminated
Mar 27
Waning Crescent
Mar 30
New
Apr 7
First Quarter
Apr 15
Full
Apr 22
Last Quarter

Hourly Weather History & Observations

Time (CDT) Temp. Windchill Dew Point Humidity Pressure Visibility Wind Dir Wind Speed Gust Speed Precip Events Conditions
12:54 AM 46.0 °F 37.4 °F 39.9 °F 79% 29.52 in 9.0 mi South 25.3 mph 33.4 mph N/A   Overcast
1:54 AM 46.0 °F 38.5 °F 39.9 °F 79% 29.49 in 8.0 mi South 19.6 mph 28.8 mph N/A   Overcast
2:54 AM 46.0 °F 39.3 °F 41.0 °F 83% 29.47 in 5.0 mi South 16.1 mph - N/A   Haze
3:50 AM 46.4 °F 40.1 °F 42.8 °F 87% 29.44 in 2.5 mi South 15.0 mph - N/A   Overcast
3:54 AM 46.0 °F 39.3 °F 42.1 °F 86% 29.44 in 2.5 mi South 16.1 mph - N/A   Overcast
4:09 AM 46.0 °F 39.6 °F 42.1 °F 86% 29.44 in 3.0 mi SSE 15.0 mph - N/A   Overcast
4:54 AM 46.0 °F 42.5 °F 42.1 °F 86% 29.43 in 3.0 mi SE 6.9 mph - N/A   Overcast
5:02 AM 46.0 °F 42.5 °F 42.1 °F 86% 29.43 in 2.5 mi ESE 6.9 mph - N/A   Overcast
5:54 AM 46.0 °F 41.4 °F 43.0 °F 89% 29.40 in 3.0 mi ESE 9.2 mph - N/A   Overcast
6:30 AM 46.0 °F 41.4 °F 43.0 °F 89% 29.39 in 3.0 mi ESE 9.2 mph - N/A   Overcast
6:40 AM 46.9 °F - 43.0 °F 86% 29.38 in 4.0 mi ESE 8.1 mph - N/A   Overcast
6:54 AM 46.9 °F - 43.0 °F 86% 29.38 in 4.0 mi ESE 9.2 mph - N/A   Overcast
7:54 AM 46.9 °F - 43.0 °F 86% 29.37 in 5.0 mi ESE 9.2 mph - N/A   Overcast
8:27 AM 48.0 °F - 44.1 °F 86% 29.36 in 4.0 mi East 4.6 mph - N/A   Overcast
8:54 AM 48.0 °F - 44.1 °F 86% 29.36 in 4.0 mi ESE 6.9 mph - N/A   Overcast
9:21 AM 48.0 °F - 44.1 °F 86% 29.33 in 4.0 mi ESE 6.9 mph - N/A   Overcast
9:31 AM 48.9 °F - 44.1 °F 83% 29.33 in 4.0 mi ESE 6.9 mph - N/A   Haze
9:42 AM 48.9 °F - 44.1 °F 83% 29.32 in 4.0 mi ESE 5.8 mph - N/A   Haze
9:54 AM 48.9 °F - 45.0 °F 86% 29.32 in 5.0 mi ESE 8.1 mph - N/A   Overcast
10:54 AM 52.0 °F - 46.0 °F 80% 29.31 in 6.0 mi SE 4.6 mph - N/A   Haze
11:09 AM 52.0 °F - 46.9 °F 83% 29.31 in 6.0 mi ESE 3.5 mph - N/A   Haze
11:23 AM 52.0 °F - 46.9 °F 83% 29.31 in 6.0 mi Calm Calm - N/A   Haze
11:39 AM 53.1 °F - 48.0 °F 83% 29.30 in 6.0 mi South 3.5 mph - N/A   Haze
11:54 AM 55.0 °F - 48.0 °F 77% 29.30 in 6.0 mi WNW 3.5 mph - N/A   Haze
12:30 PM 50.0 °F - 44.1 °F 80% 29.32 in 6.0 mi NNW 20.7 mph 33.4 mph 0.00 in Rain Light Rain
12:37 PM 48.9 °F - 44.1 °F 83% 29.33 in 5.0 mi NNW 24.2 mph 33.4 mph 0.00 in Rain Light Rain
12:45 PM 48.0 °F - 43.0 °F 83% 29.34 in 5.0 mi NNW 24.2 mph - 0.00 in Rain Light Rain
12:54 PM 46.0 °F 38.3 °F 41.0 °F 83% 29.35 in 6.0 mi NW 20.7 mph 29.9 mph 0.00 in Rain Light Rain
1:25 PM 43.0 °F 34.5 °F 37.9 °F 82% 29.38 in 2.5 mi NW 19.6 mph 34.5 mph 0.00 in Rain Light Rain
1:34 PM 42.1 °F 32.6 °F 37.0 °F 82% 29.39 in 3.0 mi NW 23.0 mph 32.2 mph 0.00 in Rain Light Rain
1:54 PM 39.9 °F 30.5 °F 34.0 °F 79% 29.44 in 3.0 mi NW 19.6 mph 32.2 mph 0.00 in Rain Light Rain
2:23 PM 37.9 °F 26.6 °F 33.1 °F 83% 29.45 in 3.0 mi NW 25.3 mph 33.4 mph 0.03 in Rain Rain
2:50 PM 37.4 °F 27.5 °F 33.8 °F 87% 29.47 in 6.0 mi NW 18.4 mph 27.6 mph 0.07 in Rain Light Rain
2:54 PM 37.9 °F 26.8 °F 33.1 °F 83% 29.49 in 6.0 mi NW 24.2 mph 27.6 mph 0.07 in Rain Light Rain
3:43 PM 37.0 °F 24.9 °F 30.9 °F 79% 29.51 in 10.0 mi NW 27.6 mph 36.8 mph 0.00 in   Overcast
3:54 PM 37.0 °F 25.9 °F 30.0 °F 76% 29.53 in 10.0 mi NW 23.0 mph 38.0 mph 0.00 in   Overcast
4:54 PM 37.9 °F 26.3 °F 30.0 °F 73% 29.58 in 10.0 mi NW 26.5 mph 38.0 mph N/A   Overcast
5:54 PM 37.9 °F 26.6 °F 28.0 °F 68% 29.64 in 10.0 mi NNW 25.3 mph 35.7 mph N/A   Overcast
6:34 PM 37.9 °F 26.6 °F 28.0 °F 68% 29.67 in 10.0 mi NW 25.3 mph 38.0 mph N/A   Overcast
6:45 PM 37.9 °F 27.1 °F 28.0 °F 68% 29.68 in 10.0 mi NW 23.0 mph 35.7 mph N/A   Overcast
6:54 PM 37.9 °F 26.8 °F 28.0 °F 68% 29.70 in 9.0 mi NNW 24.2 mph 31.1 mph N/A   Overcast
7:54 PM 37.9 °F 27.6 °F 28.0 °F 68% 29.76 in 9.0 mi NW 20.7 mph 28.8 mph N/A   Overcast
8:54 PM 37.9 °F 27.6 °F 27.0 °F 65% 29.80 in 10.0 mi NNW 20.7 mph 27.6 mph N/A   Overcast
9:43 PM 37.9 °F 28.2 °F 27.0 °F 65% 29.82 in 10.0 mi NNW 18.4 mph 24.2 mph N/A   Overcast
9:54 PM 37.9 °F 28.9 °F 27.0 °F 65% 29.84 in 10.0 mi NNW 16.1 mph - N/A   Overcast
10:34 PM 37.0 °F 28.5 °F 26.1 °F 65% 29.85 in 10.0 mi NNW 13.8 mph - N/A   Overcast
10:54 PM 37.0 °F 29.3 °F 26.1 °F 65% 29.87 in 10.0 mi NNW 11.5 mph - N/A   Overcast
11:20 PM 37.0 °F 28.5 °F 26.1 °F 65% 29.87 in 10.0 mi NNW 13.8 mph - N/A   Scattered Clouds
11:54 PM 36.0 °F 27.1 °F 25.0 °F 64% 29.89 in 10.0 mi NNW 13.8 mph - N/A   Clear